CAPE
251 376 319 154 136 229 222 93 119 147 76 316 556 497 286 348 478 280 459 299 147 561 478 762 934 1007 1140 1047 395 1025 892 801 807
176 196 131 331 156 176 263 103 59 161 189 263 739 530 383 531 647 641 413 139 54 583 30 433 877 994 1027 1016 956 958 1210 720 526
0 3 52 138 29 22 180 69 127 395 550 518 705 1085 969 910 878 825 824 921 737 779 522 544 547 365 579 1002 1070 1057 1104 822 618
0 1 3 3 2 31 37 0 35 223 298 471 401 887 988 1049 1093 1011 693 895 864 935 575 340 232 249 19 408 997 1200 1025 735 985
0 2 3 0 4 0 0 0 0 1 4 45 70 294 670 853 1321 1379 1007 918 702 1343 689 634 255 0 79 345 794 1182 1067 991 575
0 0 1 0 0 1 1 0 0 0 0 36 19 66 162 650 1138 1432 1070 1167 1249 1446 995 588 348 66 18 414 722 1035 1264 892 1285
0 0 0 0 0 0 2 4 1 3 2 3 5 0 6 154 288 558 841 1357 1776 1480 1554 1372 1018 1144 949 1092 1078 1279 1387 1144 924
0 0 0 0 0 0 0 0 0 0 0 0 0 0 0 3 37 35 76 368 1018 1677 1786 1838 1694 1339 1456 1577 1195 1285 1495 1476 1095
0 0 0 0 0 0 0 0 0 0 0 0 0 0 0 0 2 27 24 4 196 1116 1392 1687 1670 1547 1515 1280 1710 1267 1139 1434 1338
0 0 0 0 0 0 0 0 0 0 0 0 0 0 0 0 0 0 1 54 75 305 1070 1315 1474 1614 1840 1493 1494 1507 1351 996 1368
0 0 0 0 0 0 0 0 0 0 0 0 0 0 0 0 0 0 0 15 43 35 216 643 1348 1278 1378 1551 1876 1783 1335 971 763
0 0 0 0 0 0 0 0 0 0 0 0 0 0 0 0 0 0 0 0 0 0 0 13 253 910 1097 1258 1347 1390 1683 1537 1037
0 0 0 0 0 0 0 0 0 0 0 0 0 0 0 0 0 0 0 0 0 0 0 0 0 65 274 969 1084 1242 1280 1267 1115
0 0 0 0 0 0 0 0 0 0 0 0 0 0 0 0 0 0 0 0 0 0 0 0 0 0 0 12 507 1082 1088 1042 1174
0 0 0 0 0 0 0 0 0 0 0 0 0 0 0 0 0 0 0 0 0 0 0 0 0 0 0 0 8 325 732 767 607
0 0 0 0 0 0 0 0 0 0 0 0 0 0 0 0 0 0 0 0 0 0 0 0 0 0 0 0 0 0 841 920 691
0 0 0 0 0 0 0 0 0 0 0 0 0 0 0 0 0 0 0 0 0 0 0 0 0 0 0 0 0 0 46 0 115
0 0 0 0 0 0 0 0 0 0 0 0 0 0 0 0 0 0 0 0 0 0 0 0 0 0 0 0 0 0 0 0 0
0 0 0 0 0 0 0 0 0 0 0 0 0 0 0 0 0 0 0 0 0 0 0 0 0 0 0 0 0 0 0 0 0
0 0 0 0 0 0 0 0 0 0 0 0 0 0 0 0 0 0 0 0 0 0 0 0 0 0 0 0 0 0 0 0 0
CIN
-105 -41 -37 -49 -28 -38 -39 -69 -89 -108 -71 -53 -31 -25 -35 -32 -21 -64 -51 -65 -67 -60 -46 -23 -27 -18 -8 -18 -32 -14 -18 -20 -27
-261 -119 -107 -77 -53 -73 -37 -63 -73 -86 -81 -72 -39 -35 -39 -32 -22 -28 -49 -69 -77 -54 -109 -43 -45 -39 -18 -13 -23 -19 -10 -18 -26
-0 -0 -212 -211 -170 -208 -96 -85 -42 -42 -65 -69 -61 -35 -30 -28 -29 -24 -24 -32 -30 -31 -56 -73 -61 -80 -79 -28 -17 -17 -17 -20 -22
-0 -0 -0 -0 -44 -162 -262 -22 -90 -69 -61 -28 -23 -47 -31 -24 -32 -32 -28 -14 -17 -21 -57 -94 -99 -83 -47 -104 -26 -18 -16 -20 -15
-0 -0 -0 -0 -0 -0 -14 -0 -6 -8 -5 -127 -111 -76 -27 -14 -37 -24 -25 -28 -37 -18 -37 -64 -91 -0 -109 -113 -42 -18 -11 -18 -26
-0 -0 -0 -0 -0 -0 -0 -0 -0 -0 -44 -139 -145 -121 -98 -30 -11 -16 -14 -17 -23 -22 -37 -63 -95 -135 -32 -64 -52 -47 -13 -21 -13
-0 -0 -0 -0 -0 -0 -0 -0 -0 -0 -0 -36 -95 -0 -59 -111 -100 -52 -30 -10 -20 -30 -31 -21 -44 -46 -42 -41 -38 -17 -11 -24 -30
-0 -0 -0 -0 -0 -0 -0 -0 -0 -0 -0 -0 -0 -0 -15 -45 -149 -200 -183 -96 -12 -12 -15 -21 -19 -21 -16 -9 -10 -15 -17 -19 -37
-0 -0 -0 -0 -0 -0 -0 -0 -0 -0 -0 -0 -0 -0 -0 -0 -180 -189 -198 -103 -60 -4 -6 -7 -8 -17 -13 -15 -11 -26 -25 -23 -24
-0 -0 -0 -0 -0 -0 -0 -0 -0 -0 -0 -0 -0 -0 -0 -0 -0 -0 -37 -152 -64 -127 -23 -3 -1 -4 -4 -17 -16 -20 -32 -43 -18
-0 -0 -0 -0 -0 -0 -0 -0 -0 -0 -0 -0 -0 -0 -0 -0 -0 -0 -0 -84 -201 -244 -155 -65 -5 -3 -6 -4 -3 -6 -19 -38 -48
-0 -0 -0 -0 -0 -0 -0 -0 -0 -0 -0 -0 -0 -0 -0 -0 -0 -0 -0 -0 -0 -0 -0 -31 -99 -30 -16 -7 -15 -17 -7 -15 -38
-0 -0 -0 -0 -0 -0 -0 -0 -0 -0 -0 -0 -0 -0 -0 -0 -0 -0 -0 -0 -0 -0 -0 -0 -0 -169 -112 -28 -21 -24 -18 -15 -34
-0 -0 -0 -0 -0 -0 -0 -0 -0 -0 -0 -0 -0 -0 -0 -0 -0 -0 -0 -0 -0 -0 -0 -0 -0 -0 -0 -109 -78 -37 -40 -41 -21
-0 -0 -0 -0 -0 -0 -0 -0 -0 -0 -0 -0 -0 -0 -0 -0 -0 -0 -0 -0 -0 -0 -0 -0 -0 -0 -0 -0 -82 -68 -33 -40 -67
-0 -0 -0 -0 -0 -0 -0 -0 -0 -0 -0 -0 -0 -0 -0 -0 -0 -0 -0 -0 -0 -0 -0 -0 -0 -0 -0 -0 -0 -0 -10 -22 -61
-0 -0 -0 -0 -0 -0 -0 -0 -0 -0 -0 -0 -0 -0 -0 -0 -0 -0 -0 -0 -0 -0 -0 -0 -0 -0 -0 -0 -0 -0 -72 -0 -94
-0 -0 -0 -0 -0 -0 -0 -0 -0 -0 -0 -0 -0 -0 -0 -0 -0 -0 -0 -0 -0 -0 -0 -0 -0 -0 -0 -0 -0 -0 -0 -0 -0
-0 -0 -0 -0 -0 -0 -0 -0 -0 -0 -0 -0 -0 -0 -0 -0 -0 -0 -0 -0 -0 -0 -0 -0 -0 -0 -0 -0 -0 -0 -0 -0 -0
-0 -0 -0 -0 -0 -0 -0 -0 -0 -0 -0 -0 -0 -0 -0 -0 -0 -0 -0 -0 -0 -0 -0 -0 -0 -0 -0 -0 -0 -0 -0 -0 -0
Wind_Speed
10 15 23 11 11 12 16 14 13 13 11 7 8 8 9 20 0 4 18 18 9 22 11 15 20 19 19 18 18 22 23 23 24
11 17 16 15 13 20 12 12 11 12 7 6 7 8 7 12 22 6 10 19 5 10 9 8 7 10 17 18 16 19 21 24 24
13 14 12 14 20 17 19 23 24 11 9 6 8 10 8 7 14 4 2 5 18 19 3 7 6 16 17 21 18 14 20 22 24
13 13 13 12 15 13 14 17 15 16 20 21 7 8 8 8 11 17 21 17 19 2 4 7 17 21 17 22 21 17 17 22 23
12 12 12 11 12 8 15 16 14 15 14 14 18 24 28 8 9 9 9 13 19 0 6 16 21 24 0 23 16 18 11 21 24
12 11 10 10 9 11 10 12 12 20 18 14 20 19 22 27 16 11 9 7 14 27 3 11 8 2 15 17 28 25 19 21 24
11 11 10 9 10 11 10 7 4 14 12 12 15 19 21 23 22 23 23 15 6 4 7 8 10 8 30 27 23 23 26 20 21
9 10 10 10 9 10 10 8 10 11 15 17 20 18 23 23 23 22 25 22 28 22 19 17 29 28 26 30 31 31 28 23 23
5 7 8 9 9 9 9 8 10 12 14 15 15 14 16 19 21 19 27 25 33 26 31 31 28 27 24 30 29 33 32 31 29
5 5 7 8 9 10 10 11 11 13 14 14 14 13 16 19 21 19 23 19 28 26 28 33 31 30 29 35 31 34 35 34 35
6 7 8 9 10 10 11 12 14 13 14 14 14 14 15 16 21 21 21 21 24 25 25 27 28 31 32 35 35 35 39 39 35
7 8 10 11 13 12 13 15 15 16 16 15 17 17 18 18 20 22 24 24 26 27 28 29 28 29 31 35 37 37 39 39 39
9 10 12 14 15 15 16 19 19 19 20 19 20 21 21 22 23 23 25 27 27 30 30 33 32 33 32 33 36 36 38 38 39
12 13 15 15 16 18 19 20 20 21 22 24 24 24 24 25 25 27 27 28 29 30 32 32 33 35 35 35 35 37 38 37 38
16 16 17 16 17 19 20 21 22 23 25 26 27 28 28 28 28 28 29 31 31 32 32 33 34 35 36 35 35 36 38 39 38
18 18 18 19 21 22 22 23 22 24 26 26 28 29 29 31 31 31 31 32 32 33 33 34 34 34 35 36 36 36 33 33 34
16 18 19 20 22 22 23 23 24 25 26 27 28 30 31 32 32 33 33 33 32 33 33 35 35 35 35 36 38 34 29 30 31
15 17 18 18 19 21 22 23 23 24 26 27 29 30 31 32 33 34 35 35 36 37 37 37 40 40 41 41 41 41 40 39 41
15 17 14 16 19 19 20 22 24 25 26 27 29 30 31 32 33 35 36 38 39 37 40 42 44 45 44 45 45 46 46 47 44
14 15 13 15 17 17 20 23 24 26 26 27 29 31 32 33 34 35 36 38 40 44 42 41 43 45 48 49 48 49 47 45 46
Wind_Direction
209 212 248 180 192 182 172 168 167 163 159 178 184 180 169 160 291 294 256 139 291 175 104 125 145 142 143 139 137 165 198 215 222
286 261 263 259 242 255 236 183 179 167 169 198 213 221 209 163 162 137 133 155 94 113 101 86 54 81 140 145 133 154 169 195 216
289 289 271 270 255 263 261 255 251 233 232 221 226 242 232 182 160 225 180 292 166 160 19 72 66 137 135 164 152 120 160 185 200
293 292 291 273 264 260 283 272 265 263 256 257 233 220 232 240 260 262 254 263 262 28 92 303 155 162 146 177 170 146 148 180 191
303 304 297 293 293 295 275 268 262 271 259 273 272 262 255 215 246 256 266 268 168 117 133 151 171 196 200 177 152 153 124 177 194
313 315 310 300 303 308 317 272 280 264 266 276 273 280 272 259 263 260 262 256 266 237 126 148 142 327 154 167 214 198 172 182 200
304 324 329 318 303 305 310 329 304 291 304 281 276 290 281 271 266 265 264 267 246 212 173 158 155 285 236 234 186 189 205 182 189
302 315 326 336 329 310 316 320 307 318 304 315 279 281 298 284 271 272 272 273 264 267 273 275 246 250 258 243 237 239 210 193 194
315 339 343 332 331 330 325 322 337 332 337 338 309 300 306 295 283 285 275 267 275 265 256 258 262 263 271 256 260 232 223 223 212
318 350 1 354 341 337 336 333 334 342 348 348 340 345 311 299 285 289 288 275 268 273 267 258 262 264 265 249 263 256 239 243 250
309 323 342 348 343 344 344 350 352 349 349 353 350 340 333 325 282 292 288 288 281 280 277 274 271 266 265 260 259 263 252 251 265
312 317 326 325 327 335 333 336 332 337 339 343 339 335 331 319 306 303 286 286 286 286 283 282 281 278 273 266 262 263 262 263 263
314 322 319 314 318 322 322 320 320 319 320 330 326 327 325 319 315 314 305 300 297 290 288 279 280 278 278 275 271 270 267 271 271
300 305 306 312 314 314 312 315 315 310 311 311 317 318 317 315 313 307 305 303 302 299 291 288 284 278 279 277 277 275 273 274 274
288 294 300 306 309 310 313 315 310 308 307 309 309 308 308 309 308 308 306 303 300 298 296 296 291 284 282 281 281 279 277 276 276
286 289 296 302 305 305 309 311 310 307 307 309 309 308 307 305 303 303 303 302 300 298 297 293 291 294 289 286 286 284 285 285 283
288 293 297 304 304 304 306 311 311 310 310 312 310 306 305 306 304 303 303 301 301 299 298 294 292 293 293 291 287 290 294 294 292
295 297 300 305 307 307 308 312 313 315 315 315 309 307 306 305 304 304 302 300 299 296 295 294 292 291 289 288 286 284 287 288 288
294 299 302 307 308 308 311 313 314 316 319 319 315 311 309 308 307 304 303 301 298 300 297 294 290 288 288 287 285 285 283 281 285
292 298 300 310 310 316 314 313 312 315 318 319 316 313 312 311 310 308 306 304 301 298 300 299 296 292 288 286 287 286 285 287 284